Weather History for Chignik, AK

Change the Weather History Date:

Monday, September 10, 2012

  Actual Average Record
Temperature  
Mean Temperature 45 °F -  
Max Temperature 48 °F 52 °F 60 °F (2003)
Min Temperature 42 °F 45 °F 42 °F (2010)
Degree Days  
Heating Degree Days 20    
Moisture  
Dew Point 41 °F    
Average Humidity 84    
Maximum Humidity 93    
Minimum Humidity 76    
Precipitation  
Precipitation 0.00 in - - ()
Sea Level Pressure  
Sea Level Pressure 29.82 in    
Wind  
Wind Speed - (North)    
Max Wind Speed -    
Max Gust Speed -    
Visibility 10 miles    
Events      
Averages and records for this station are not official NWS values.
T = Trace of Precipitation, MM = Missing Value Source: NWS Daily Summary

Daily Weather History Graph

Daily Weather History Graph

Search for Another Location

Airport:

Trip Planner

Search our weather history database for the weather conditions in past years. The results will help you decide how hot, cold, wet, or windy it might be!

Date:

Astronomy

Sep. 10, 2012 Rise Set
Actual Time 7:56 AM AKDT 9:02 PM AKDT
Civil Twilight 7:17 AM AKDT 9:40 PM AKDT
Nautical Twilight 6:30 AM AKDT 10:27 PM AKDT
Astronomical Twilight 5:38 AM AKDT 11:19 PM AKDT
Moon 1:38 AM AKDT (9/10) 6:24 PM AKDT (9/10)
Length of Visible Light 14h 22m
Length of Day
13h 06m
Waning Crescent, 29% of the Moon is Illuminated
Sep 10
Waning Crescent
Sep 15
New
Sep 22
First Quarter
Sep 29
Full
Oct 7
Last Quarter

Hourly Weather History & Observations

Time (AKDT) Temp. Dew Point Humidity Pressure Visibility Wind Dir Wind Speed Gust Speed Precip Events Conditions
12:16 AM 44.6 °F 37.4 °F 76% 29.97 in 10.0 mi North - - N/A   Scattered Clouds
12:36 AM 42.8 °F 37.4 °F 81% 29.97 in 10.0 mi North - - N/A   Mostly Cloudy
12:56 AM 44.6 °F 37.4 °F 76% 29.96 in 10.0 mi North - - N/A   Partly Cloudy
1:16 AM 42.8 °F 37.4 °F 81% 29.95 in 10.0 mi North - - N/A   Clear
1:36 AM 42.8 °F 37.4 °F 81% 29.95 in 10.0 mi North - - N/A   Clear
1:56 AM 42.8 °F 37.4 °F 81% 29.95 in 10.0 mi North - - N/A   Partly Cloudy
2:16 AM 44.6 °F 37.4 °F 76% 29.94 in 10.0 mi North - - N/A   Mostly Cloudy
2:36 AM 42.8 °F 37.4 °F 81% 29.93 in 10.0 mi North - - N/A   Mostly Cloudy
2:56 AM 42.8 °F 37.4 °F 81% 29.93 in 10.0 mi North - - N/A   Mostly Cloudy
3:16 AM 42.8 °F 37.4 °F 81% 29.93 in 10.0 mi North - - N/A   Mostly Cloudy
3:36 AM 42.8 °F 35.6 °F 76% 29.91 in 10.0 mi North - - N/A   Mostly Cloudy
3:56 AM 42.8 °F 37.4 °F 81% 29.91 in 10.0 mi North - - N/A   Overcast
4:16 AM 42.8 °F 37.4 °F 81% 29.91 in 10.0 mi North - - N/A   Overcast
4:36 AM 44.6 °F 37.4 °F 76% 29.90 in 10.0 mi North - - N/A   Overcast
4:56 AM 44.6 °F 37.4 °F 76% 29.89 in 10.0 mi North - - N/A   Overcast
5:16 AM 44.6 °F 39.2 °F 81% 29.89 in 10.0 mi North - - N/A   Overcast
5:36 AM 42.8 °F 39.2 °F 87% 29.88 in 10.0 mi North - - N/A   Overcast
5:56 AM 44.6 °F 39.2 °F 81% 29.87 in 10.0 mi North - - N/A   Overcast
6:16 AM 44.6 °F 39.2 °F 81% 29.86 in 10.0 mi North - - N/A   Overcast
6:36 AM 44.6 °F 37.4 °F 76% 29.86 in 10.0 mi North - - N/A   Overcast
6:56 AM 44.6 °F 37.4 °F 76% 29.85 in 10.0 mi North - - N/A   Overcast
7:16 AM 44.6 °F 39.2 °F 81% 29.86 in 10.0 mi North - - N/A   Overcast
7:36 AM 44.6 °F 39.2 °F 81% 29.85 in 10.0 mi North - - N/A   Overcast
7:56 AM 44.6 °F 39.2 °F 81% 29.84 in 10.0 mi North - - N/A   Overcast
8:16 AM 44.6 °F 39.2 °F 81% 29.84 in 10.0 mi North - - N/A   Overcast
8:36 AM 44.6 °F 39.2 °F 81% 29.84 in 10.0 mi North - - N/A   Overcast
8:56 AM 44.6 °F 39.2 °F 81% 29.83 in 9.0 mi North - - N/A   Overcast
9:16 AM 44.6 °F 39.2 °F 81% 29.83 in 10.0 mi North - - N/A   Overcast
9:36 AM 44.6 °F 39.2 °F 81% 29.82 in 10.0 mi North - - N/A   Overcast
9:56 AM 44.6 °F 39.2 °F 81% 29.81 in 10.0 mi North - - N/A   Overcast
10:16 AM 44.6 °F 41.0 °F 87% 29.82 in 10.0 mi North - - N/A   Overcast
10:36 AM 44.6 °F 41.0 °F 87% 29.80 in 7.0 mi North - - N/A   Overcast
10:56 AM 46.4 °F 42.8 °F 87% 29.80 in 3.0 mi North - - N/A   Overcast
11:16 AM 46.4 °F 42.8 °F 87% 29.80 in 2.5 mi North - - N/A   Overcast
11:36 AM 46.4 °F 42.8 °F 87% 29.80 in 2.5 mi North - - N/A   Overcast
11:56 AM 44.6 °F 42.8 °F 93% 29.80 in 2.5 mi North - - N/A   Overcast
12:16 PM 46.4 °F 42.8 °F 87% 29.80 in 4.0 mi North - - N/A   Overcast
12:36 PM 46.4 °F 42.8 °F 87% 29.79 in 10.0 mi North - - N/A   Overcast
12:56 PM 46.4 °F 42.8 °F 87% 29.79 in 10.0 mi North - - N/A   Overcast
1:16 PM 46.4 °F 42.8 °F 87% 29.79 in 10.0 mi North - - N/A   Overcast
1:36 PM 48.2 °F 44.6 °F 87% 29.78 in 10.0 mi North - - N/A   Overcast
1:56 PM 48.2 °F 44.6 °F 87% 29.78 in 10.0 mi North - - N/A   Overcast
2:16 PM 46.4 °F 42.8 °F 87% 29.78 in 10.0 mi North - - N/A   Overcast
2:36 PM 48.2 °F 44.6 °F 87% 29.78 in 10.0 mi North - - N/A   Overcast
2:56 PM 48.2 °F 42.8 °F 82% 29.78 in 10.0 mi North - - N/A   Overcast
3:16 PM 48.2 °F 42.8 °F 82% 29.78 in 10.0 mi North - - N/A   Overcast
3:36 PM 48.2 °F 42.8 °F 82% 29.77 in 10.0 mi North - - N/A   Overcast
3:56 PM 48.2 °F 42.8 °F 82% 29.77 in 10.0 mi North - - N/A   Overcast
4:16 PM 48.2 °F 44.6 °F 87% 29.77 in 10.0 mi North - - N/A   Overcast
4:36 PM 48.2 °F 44.6 °F 87% 29.76 in 10.0 mi North - - N/A   Overcast
4:56 PM 48.2 °F 42.8 °F 82% 29.76 in 10.0 mi North - - N/A   Overcast
5:16 PM 48.2 °F 44.6 °F 87% 29.76 in 10.0 mi North - - N/A   Overcast
5:36 PM 48.2 °F 44.6 °F 87% 29.76 in 10.0 mi North - - N/A   Overcast
5:56 PM 48.2 °F 44.6 °F 87% 29.76 in 10.0 mi North - - N/A   Overcast
6:16 PM 48.2 °F 44.6 °F 87% 29.75 in 10.0 mi North - - N/A   Overcast
6:36 PM 48.2 °F 44.6 °F 87% 29.76 in 10.0 mi North - - N/A   Overcast
6:56 PM 48.2 °F 44.6 °F 87% 29.75 in 10.0 mi North - - N/A   Overcast
7:16 PM 48.2 °F 44.6 °F 87% 29.75 in 10.0 mi North - - N/A   Overcast
7:36 PM 48.2 °F 44.6 °F 87% 29.74 in 10.0 mi North - - N/A   Overcast
7:56 PM 48.2 °F 44.6 °F 87% 29.75 in 10.0 mi North - - N/A   Overcast
8:16 PM 48.2 °F 44.6 °F 87% 29.74 in 10.0 mi North - - N/A   Overcast
8:36 PM 48.2 °F 44.6 °F 87% 29.74 in 10.0 mi North - - N/A   Overcast
8:56 PM 48.2 °F 44.6 °F 87% 29.74 in 10.0 mi North - - N/A   Overcast
9:16 PM 48.2 °F 44.6 °F 87% 29.73 in 10.0 mi North - - N/A   Overcast
9:36 PM 48.2 °F 44.6 °F 87% 29.73 in 10.0 mi North - - N/A   Overcast
9:56 PM 48.2 °F 44.6 °F 87% 29.73 in 10.0 mi North - - N/A   Overcast
10:16 PM 48.2 °F 44.6 °F 87% 29.73 in 10.0 mi North - - N/A   Overcast
10:36 PM 48.2 °F 44.6 °F 87% 29.73 in 10.0 mi North - - N/A   Overcast
10:56 PM 48.2 °F 44.6 °F 87% 29.72 in 10.0 mi North - - N/A   Overcast
11:16 PM 48.2 °F 44.6 °F 87% 29.72 in 10.0 mi North - - N/A   Overcast
11:36 PM 48.2 °F 44.6 °F 87% 29.72 in 10.0 mi North - - N/A   Overcast
11:56 PM 48.2 °F 44.6 °F 87% 29.71 in 10.0 mi North - - N/A   Overcast